| time (UTC) | temp F | wind direction | speed knots | gust knots | rain 1hr in | rain 24hr in | rain mn in | humidity % | barometer mb |
| 20260902025523 | 80 | 0.0 | 0.0 | 0.00 | 0.00 | 0.00 | 75 | 1010.2 | |
| 20260902024521 | 81 | 137 | 0.0 | 0.9 | 0.00 | 0.00 | 0.00 | 75 | 1010.1 |
| 20260902023515 | 81 | 137 | 0.0 | 0.9 | 0.00 | 0.00 | 0.00 | 74 | 1010.1 |
| 20260902022553 | 82 | 162 | 0.0 | 0.9 | 0.00 | 0.00 | 0.00 | 73 | 1010.2 |
| 20260902021548 | 83 | 166 | 0.9 | 3.5 | 0.00 | 0.00 | 0.00 | 73 | 1010.1 |
| 20260902020544 | 83 | 178 | 1.7 | 6.1 | 0.00 | 0.00 | 0.00 | 73 | 1010.2 |
| 20260902015540 | 83 | 169 | 1.7 | 3.5 | 0.00 | 0.00 | 0.00 | 73 | 1010.1 |
| 20260902014518 | 83 | 181 | 1.7 | 2.6 | 0.00 | 0.00 | 0.00 | 73 | 1010.2 |
| 20260902013532 | 83 | 183 | 2.6 | 6.1 | 0.00 | 0.00 | 0.00 | 72 | 1010.2 |
| 20260902012528 | 84 | 184 | 2.6 | 5.2 | 0.00 | 0.00 | 0.00 | 72 | 1010.0 |
| 20260902011545 | 84 | 184 | 2.6 | 6.1 | 0.00 | 0.00 | 0.00 | 73 | 1009.8 |
| 20260902010521 | 84 | 188 | 2.6 | 7.8 | 0.00 | 0.00 | 0.00 | 73 | 1009.8 |
| 20260902005600 | 84 | 189 | 3.5 | 7.0 | 0.00 | 0.00 | 0.00 | 74 | 1009.6 |
| 20260902004533 | 84 | 185 | 2.6 | 7.0 | 0.00 | 0.00 | 0.00 | 74 | 1009.4 |
| 20260902003530 | 84 | 188 | 3.5 | 8.7 | 0.00 | 0.00 | 0.00 | 75 | 1009.3 |
| 20260902002526 | 84 | 184 | 2.6 | 6.1 | 0.00 | 0.00 | 0.00 | 75 | 1009.1 |
| 20260902001522 | 83 | 187 | 3.5 | 8.7 | 0.00 | 0.00 | 0.00 | 76 | 1009.4 |
| 20260902000518 | 83 | 181 | 1.7 | 5.2 | 0.00 | 0.00 | 0.00 | 76 | 1009.3 |
| 20260901235534 | 83 | 150 | 0.9 | 3.5 | 0.00 | 0.00 | 0.00 | 75 | 1009.3 |
| 20260901234530 | 83 | 143 | 0.0 | 0.9 | 0.00 | 0.00 | 0.00 | 75 | 1009.1 |
| 20260901233530 | 84 | 113 | 0.0 | 0.9 | 0.00 | 0.00 | 0.00 | 74 | 1009.3 |
| 20260901232524 | 84 | 113 | 0.9 | 0.9 | 0.00 | 0.00 | 0.00 | 73 | 1009.3 |
| 20260901231519 | 85 | 0.0 | 0.0 | 0.00 | 0.00 | 0.00 | 73 | 1009.3 | |
| 20260901230515 | 85 | 113 | 0.9 | 1.7 | 0.00 | 0.00 | 0.00 | 72 | 1009.3 |
| 20260901225531 | 85 | 113 | 1.7 | 2.6 | 0.00 | 0.00 | 0.00 | 72 | 1009.2 |
| 20260901224527 | 85 | 114 | 0.9 | 1.7 | 0.00 | 0.00 | 0.00 | 72 | 1009.3 |
| 20260901223525 | 85 | 114 | 1.7 | 2.6 | 0.00 | 0.00 | 0.00 | 72 | 1009.3 |
| 20260901222520 | 85 | 113 | 0.0 | 0.9 | 0.00 | 0.00 | 0.00 | 72 | 1009.4 |
| 20260901221516 | 85 | 114 | 0.9 | 0.9 | 0.00 | 0.00 | 0.00 | 72 | 1009.2 |
| 20260901220532 | 86 | 114 | 0.9 | 1.7 | 0.00 | 0.00 | 0.00 | 72 | 1009.1 |
| 20260901215549 | 85 | 113 | 0.9 | 1.7 | 0.00 | 0.00 | 0.00 | 73 | 1009.1 |
| 20260901214546 | 85 | 113 | 0.9 | 1.7 | 0.00 | 0.00 | 0.00 | 74 | 1009.1 |
| 20260901213521 | 84 | 113 | 0.9 | 1.7 | 0.00 | 0.00 | 0.00 | 75 | 1009.1 |
| 20260901212517 | 84 | 113 | 0.9 | 1.7 | 0.00 | 0.00 | 0.00 | 74 | 1009.2 |
| 20260901211556 | 84 | 113 | 0.9 | 1.7 | 0.00 | 0.00 | 0.00 | 74 | 1009.3 |
| 20260901210529 | 84 | 113 | 0.9 | 2.6 | 0.00 | 0.00 | 0.00 | 73 | 1009.4 |
| 20260901205525 | 84 | 113 | 1.7 | 2.6 | 0.00 | 0.00 | 0.00 | 73 | 1009.4 |
| 20260901204542 | 84 | 120 | 2.6 | 5.2 | 0.00 | 0.00 | 0.00 | 72 | 1009.4 |
| 20260901203538 | 84 | 120 | 0.9 | 2.6 | 0.00 | 0.00 | 0.00 | 71 | 1009.5 |
| 20260901202556 | 85 | 119 | 1.7 | 5.2 | 0.00 | 0.00 | 0.00 | 71 | 1009.4 |
| 20260901201550 | 85 | 122 | 2.6 | 7.0 | 0.00 | 0.00 | 0.00 | 71 | 1009.5 |
| 20260901200526 | 85 | 120 | 4.3 | 7.8 | 0.00 | 0.00 | 0.00 | 71 | 1009.4 |
| 20260901195522 | 85 | 120 | 2.6 | 6.1 | 0.00 | 0.00 | 0.00 | 71 | 1009.5 |
| 20260901194519 | 86 | 119 | 2.6 | 7.0 | 0.00 | 0.00 | 0.00 | 71 | 1009.6 |
| 20260901193537 | 86 | 122 | 2.6 | 5.2 | 0.00 | 0.00 | 0.00 | 70 | 1009.7 |
| 20260901192531 | 87 | 121 | 1.7 | 5.2 | 0.00 | 0.00 | 0.00 | 70 | 1009.7 |
| 20260901191527 | 87 | 124 | 4.3 | 7.8 | 0.00 | 0.00 | 0.00 | 70 | 1009.5 |
| 20260901190524 | 87 | 122 | 4.3 | 7.8 | 0.00 | 0.00 | 0.00 | 71 | 1009.5 |
| 20260901185520 | 87 | 124 | 4.3 | 7.0 | 0.00 | 0.00 | 0.00 | 71 | 1009.4 |
| 20260901184516 | 88 | 125 | 5.2 | 7.8 | 0.00 | 0.00 | 0.00 | 71 | 1009.4 |
| 20260901183552 | 87 | 126 | 3.5 | 7.0 | 0.00 | 0.00 | 0.00 | 71 | 1009.5 |
| 20260901182529 | 87 | 131 | 3.5 | 7.0 | 0.00 | 0.00 | 0.00 | 71 | 1009.5 |
| 20260901181525 | 87 | 136 | 4.3 | 7.8 | 0.00 | 0.00 | 0.00 | 71 | 1009.6 |
| 20260901180541 | 87 | 140 | 3.5 | 6.1 | 0.00 | 0.00 | 0.00 | 71 | 1009.7 |
| 20260901175518 | 87 | 134 | 4.3 | 7.0 | 0.00 | 0.00 | 0.00 | 70 | 1009.6 |
| 20260901174533 | 87 | 141 | 3.5 | 7.0 | 0.00 | 0.00 | 0.00 | 71 | 1009.7 |
| 20260901173553 | 87 | 139 | 4.3 | 7.8 | 0.00 | 0.00 | 0.00 | 70 | 1009.6 |
| 20260901172526 | 87 | 137 | 4.3 | 8.7 | 0.00 | 0.00 | 0.00 | 70 | 1009.9 |
| 20260901171542 | 87 | 136 | 4.3 | 7.8 | 0.00 | 0.00 | 0.00 | 72 | 1010.0 |
| 20260901170518 | 87 | 144 | 3.5 | 7.0 | 0.00 | 0.02 | 0.00 | 72 | 1010.2 |
| 20260901165534 | 87 | 139 | 3.5 | 7.0 | 0.00 | 0.02 | 0.00 | 72 | 1010.3 |
| 20260901164530 | 87 | 139 | 3.5 | 6.1 | 0.00 | 0.02 | 0.00 | 73 | 1010.5 |
| 20260901163607 | 86 | 139 | 3.5 | 6.1 | 0.00 | 0.02 | 0.00 | 73 | 1010.5 |
| 20260901162524 | 86 | 139 | 2.6 | 5.2 | 0.00 | 0.02 | 0.00 | 73 | 1010.5 |
| 20260901161519 | 85 | 155 | 4.3 | 7.8 | 0.00 | 0.02 | 0.00 | 74 | 1010.6 |
| 20260901160515 | 84 | 176 | 1.7 | 5.2 | 0.00 | 0.02 | 0.00 | 74 | 1010.7 |
| 20260901155532 | 84 | 186 | 0.9 | 2.6 | 0.00 | 0.02 | 0.00 | 74 | 1010.6 |
| 20260901154527 | 84 | 184 | 1.7 | 5.2 | 0.00 | 0.02 | 0.00 | 74 | 1010.7 |
| 20260901153524 | 83 | 184 | 2.6 | 7.0 | 0.00 | 0.02 | 0.00 | 75 | 1010.6 |
| 20260901152520 | 83 | 184 | 2.6 | 5.2 | 0.00 | 0.02 | 0.00 | 76 | 1010.7 |
| 20260901151516 | 82 | 178 | 0.9 | 5.2 | 0.00 | 0.02 | 0.00 | 78 | 1010.8 |
| 20260901150552 | 81 | 183 | 2.6 | 7.0 | 0.00 | 0.02 | 0.00 | 78 | 1010.9 |
| 20260901145528 | 81 | 184 | 2.6 | 5.2 | 0.00 | 0.02 | 0.00 | 78 | 1011.0 |
| 20260901144545 | 81 | 190 | 4.3 | 7.8 | 0.00 | 0.02 | 0.00 | 78 | 1011.0 |
| 20260901143541 | 81 | 183 | 1.7 | 3.5 | 0.00 | 0.02 | 0.00 | 79 | 1010.8 |
| 20260901142517 | 80 | 181 | 1.7 | 3.5 | 0.00 | 0.02 | 0.00 | 80 | 1010.7 |
| 20260901141553 | 80 | 184 | 2.6 | 3.5 | 0.00 | 0.02 | 0.00 | 80 | 1010.8 |
| 20260901140530 | 80 | 184 | 1.7 | 5.2 | 0.00 | 0.02 | 0.00 | 81 | 1010.7 |
| 20260901135525 | 79 | 183 | 2.6 | 5.2 | 0.00 | 0.02 | 0.00 | 82 | 1010.7 |
| 20260901134521 | 79 | 183 | 2.6 | 5.2 | 0.00 | 0.02 | 0.00 | 82 | 1010.6 |
| 20260901133519 | 78 | 185 | 2.6 | 6.1 | 0.00 | 0.02 | 0.00 | 83 | 1010.6 |
| 20260901132534 | 78 | 183 | 1.7 | 5.2 | 0.00 | 0.02 | 0.00 | 84 | 1010.4 |
| 20260901131530 | 77 | 182 | 2.6 | 3.5 | 0.00 | 0.02 | 0.00 | 85 | 1010.6 |
| 20260901130546 | 76 | 182 | 1.7 | 5.2 | 0.00 | 0.02 | 0.00 | 86 | 1010.8 |
| 20260901125522 | 76 | 183 | 1.7 | 5.2 | 0.00 | 0.02 | 0.00 | 86 | 1010.8 |
| 20260901124558 | 75 | 184 | 2.6 | 6.1 | 0.00 | 0.02 | 0.00 | 87 | 1011.0 |
| 20260901123535 | 75 | 182 | 1.7 | 3.5 | 0.00 | 0.02 | 0.00 | 87 | 1010.9 |
| 20260901122551 | 74 | 182 | 1.7 | 3.5 | 0.00 | 0.02 | 0.00 | 87 | 1010.8 |
| 20260901121527 | 74 | 182 | 1.7 | 3.5 | 0.00 | 0.02 | 0.00 | 87 | 1010.7 |
| 20260901120522 | 73 | 180 | 1.7 | 3.5 | 0.00 | 0.02 | 0.00 | 87 | 1010.7 |
| 20260901115621 | 73 | 179 | 0.9 | 1.7 | 0.00 | 0.02 | 0.00 | 87 | 1010.6 |
| 20260901114535 | 73 | 181 | 0.9 | 2.6 | 0.00 | 0.02 | 0.00 | 87 | 1010.5 |
| 20260901113531 | 73 | 181 | 0.9 | 1.7 | 0.00 | 0.02 | 0.00 | 86 | 1010.5 |
| 20260901112529 | 73 | 181 | 0.0 | 1.7 | 0.00 | 0.02 | 0.00 | 86 | 1010.4 |
| 20260901111524 | 73 | 181 | 0.0 | 0.9 | 0.00 | 0.02 | 0.00 | 86 | 1010.4 |
| 20260901110520 | 73 | 181 | 0.0 | 0.9 | 0.00 | 0.02 | 0.00 | 86 | 1010.4 |
| 20260901105517 | 73 | 181 | 0.9 | 1.7 | 0.00 | 0.02 | 0.00 | 86 | 1010.4 |
| 20260901104553 | 73 | 182 | 0.9 | 1.7 | 0.00 | 0.02 | 0.00 | 86 | 1010.4 |
| 20260901103528 | 73 | 182 | 0.0 | 1.7 | 0.00 | 0.02 | 0.00 | 85 | 1010.0 |
| 20260901102525 | 73 | 182 | 0.0 | 0.9 | 0.00 | 0.02 | 0.00 | 85 | 1010.1 |
| 20260901101520 | 74 | 0.0 | 0.0 | 0.00 | 0.02 | 0.00 | 85 | 1010.1 | |
| 20260901100516 | 74 | 182 | 0.9 | 1.7 | 0.00 | 0.02 | 0.00 | 85 | 1010.1 |
| 20260901095533 | 74 | 182 | 0.9 | 3.5 | 0.00 | 0.02 | 0.00 | 85 | 1010.0 |
| 20260901094529 | 74 | 182 | 0.9 | 2.6 | 0.00 | 0.02 | 0.00 | 85 | 1010.0 |
| 20260901093525 | 74 | 181 | 0.9 | 2.6 | 0.00 | 0.02 | 0.00 | 85 | 1009.9 |
| 20260901092521 | 74 | 182 | 1.7 | 5.2 | 0.00 | 0.02 | 0.00 | 85 | 1009.8 |
| 20260901091517 | 74 | 181 | 1.7 | 3.5 | 0.00 | 0.02 | 0.00 | 85 | 1009.8 |
| 20260901090533 | 74 | 182 | 1.7 | 6.1 | 0.00 | 0.02 | 0.00 | 85 | 1009.8 |
| 20260901085529 | 74 | 183 | 2.6 | 6.1 | 0.00 | 0.02 | 0.00 | 85 | 1009.7 |
| 20260901084525 | 75 | 183 | 2.6 | 5.2 | 0.00 | 0.02 | 0.00 | 85 | 1009.7 |
| 20260901083521 | 75 | 183 | 2.6 | 6.1 | 0.00 | 0.02 | 0.00 | 84 | 1009.7 |
| 20260901082517 | 75 | 182 | 1.7 | 6.1 | 0.00 | 0.02 | 0.00 | 84 | 1009.5 |
| 20260901081534 | 75 | 184 | 2.6 | 6.1 | 0.00 | 0.02 | 0.00 | 84 | 1009.4 |
| 20260901080530 | 75 | 182 | 1.7 | 6.1 | 0.00 | 0.02 | 0.00 | 84 | 1009.4 |
| 20260901075526 | 75 | 182 | 1.7 | 5.2 | 0.00 | 0.02 | 0.00 | 84 | 1009.5 |
| 20260901074522 | 75 | 185 | 2.6 | 7.8 | 0.00 | 0.02 | 0.00 | 84 | 1009.5 |
| 20260901073518 | 75 | 187 | 3.5 | 7.8 | 0.00 | 0.02 | 0.00 | 85 | 1009.5 |
| 20260901072534 | 75 | 183 | 2.6 | 5.2 | 0.00 | 0.02 | 0.00 | 85 | 1009.6 |
| 20260901071530 | 75 | 182 | 2.6 | 5.2 | 0.00 | 0.02 | 0.00 | 85 | 1009.4 |
| 20260901070526 | 75 | 179 | 0.9 | 2.6 | 0.00 | 0.02 | 0.00 | 85 | 1009.5 |
| 20260901065524 | 75 | 179 | 1.7 | 3.5 | 0.00 | 0.02 | 0.00 | 85 | 1009.4 |
| 20260901064519 | 75 | 179 | 0.9 | 2.6 | 0.00 | 0.02 | 0.00 | 85 | 1009.6 |
| 20260901063535 | 74 | 180 | 1.7 | 3.5 | 0.00 | 0.02 | 0.00 | 85 | 1009.7 |
| 20260901062531 | 74 | 177 | 0.9 | 2.6 | 0.00 | 0.02 | 0.00 | 85 | 1009.8 |
| 20260901061527 | 74 | 179 | 1.7 | 3.5 | 0.00 | 0.02 | 0.00 | 85 | 1010.0 |
| 20260901060523 | 74 | 179 | 0.9 | 3.5 | 0.00 | 0.02 | 0.00 | 86 | 1010.0 |
| 20260901055519 | 73 | 181 | 1.7 | 3.5 | 0.00 | 0.02 | 0.00 | 86 | 1010.1 |
| 20260901054515 | 73 | 176 | 0.9 | 2.6 | 0.00 | 0.02 | 0.00 | 85 | 1010.1 |
| 20260901053531 | 72 | 127 | 0.0 | 0.9 | 0.00 | 0.02 | 0.00 | 85 | 1010.2 |
| 20260901052609 | 72 | 0.0 | 0.0 | 0.00 | 0.02 | 0.00 | 85 | 1010.3 | |
| 20260901051524 | 72 | 0.0 | 0.0 | 0.00 | 0.02 | 0.00 | 85 | 1010.3 | |
| 20260901050522 | 72 | 0.0 | 0.0 | 0.00 | 0.02 | 0.00 | 84 | 1010.2 | |
| 20260901045516 | 72 | 0.0 | 0.0 | 0.00 | 0.02 | 0.00 | 84 | 1010.2 | |
| 20260901044534 | 73 | 0.0 | 0.0 | 0.00 | 0.02 | 0.00 | 84 | 1010.2 | |
| 20260901043530 | 73 | 0.0 | 0.0 | 0.00 | 0.02 | 0.00 | 84 | 1010.1 | |
| 20260901042525 | 73 | 103 | 0.0 | 0.9 | 0.00 | 0.02 | 0.00 | 84 | 1010.1 |
| 20260901041522 | 73 | 53 | 0.0 | 0.9 | 0.00 | 0.02 | 0.00 | 84 | 1010.2 |
| 20260901040517 | 73 | 82 | 0.9 | 1.7 | 0.00 | 0.02 | 0.00 | 84 | 1010.2 |
| 20260901035533 | 73 | 151 | 0.9 | 1.7 | 0.00 | 0.02 | 0.02 | 83 | 1010.3 |
| 20260901034531 | 73 | 150 | 0.9 | 1.7 | 0.00 | 0.02 | 0.02 | 83 | 1010.3 |
| 20260901033525 | 73 | 151 | 0.9 | 2.6 | 0.00 | 0.02 | 0.02 | 83 | 1010.3 |
| 20260901032521 | 73 | 148 | 0.0 | 0.9 | 0.00 | 0.02 | 0.02 | 83 | 1010.4 |
| 20260901031519 | 73 | 152 | 1.7 | 2.6 | 0.00 | 0.02 | 0.02 | 83 | 1010.4 |
| 20260901030534 | 73 | 151 | 0.9 | 2.6 | 0.00 | 0.02 | 0.02 | 83 | 1010.3 |